TimePDT,TemperatureF,Dew PointF,Humidity,Sea Level PressureIn,VisibilityMPH,Wind Direction,Wind SpeedMPH,Gust SpeedMPH,PrecipitationIn,Events,Conditions,WindDirDegrees,DateUTC
12:15 AM,28.4,5.0,37,30.00,10.0,Calm,Calm,-,N/A,,Clear,0,2013-03-23 07:15:00
12:35 AM,28.4,5.0,37,30.00,10.0,Calm,Calm,-,N/A,,Clear,0,2013-03-23 07:35:00
12:55 AM,28.4,3.2,34,30.00,10.0,Calm,Calm,-,N/A,,Clear,0,2013-03-23 07:55:00
1:15 AM,28.4,5.0,37,30.01,10.0,Calm,Calm,-,N/A,,Clear,0,2013-03-23 08:15:00
1:35 AM,28.4,5.0,37,30.02,10.0,Calm,Calm,-,N/A,,Clear,0,2013-03-23 08:35:00
1:55 AM,28.4,5.0,37,30.03,10.0,Calm,Calm,-,N/A,,Clear,0,2013-03-23 08:55:00
2:15 AM,28.4,3.2,34,30.02,10.0,Calm,Calm,-,N/A,,Clear,0,2013-03-23 09:15:00
2:35 AM,28.4,3.2,34,30.02,10.0,ENE,3.5,-,N/A,,Clear,70,2013-03-23 09:35:00
2:55 AM,28.4,5.0,37,30.01,10.0,Calm,Calm,-,N/A,,Clear,0,2013-03-23 09:55:00
3:15 AM,26.6,5.0,40,30.00,10.0,Calm,Calm,-,N/A,,Clear,0,2013-03-23 10:15:00
3:35 AM,26.6,5.0,40,30.01,10.0,Calm,Calm,-,N/A,,Clear,0,2013-03-23 10:35:00
3:55 AM,26.6,6.8,43,30.01,10.0,Calm,Calm,-,N/A,,Clear,0,2013-03-23 10:55:00
4:15 AM,26.6,6.8,43,30.01,10.0,Calm,Calm,-,N/A,,Clear,0,2013-03-23 11:15:00
4:35 AM,26.6,6.8,43,30.02,10.0,Calm,Calm,-,N/A,,Clear,0,2013-03-23 11:35:00
4:55 AM,26.6,8.6,47,30.01,10.0,Calm,Calm,-,N/A,,Clear,0,2013-03-23 11:55:00
5:15 AM,24.8,8.6,50,30.03,10.0,Calm,Calm,-,N/A,,Clear,0,2013-03-23 12:15:00
5:35 AM,24.8,8.6,50,30.04,10.0,Calm,Calm,-,N/A,,Clear,0,2013-03-23 12:35:00
6:15 AM,24.8,10.4,54,30.04,10.0,Calm,Calm,-,N/A,,Clear,0,2013-03-23 13:15:00
6:35 AM,23.0,8.6,54,30.05,10.0,Calm,Calm,-,N/A,,Clear,0,2013-03-23 13:35:00
6:55 AM,23.0,8.6,54,30.05,10.0,Calm,Calm,-,N/A,,Clear,0,2013-03-23 13:55:00
7:15 AM,23.0,8.6,54,30.06,10.0,Calm,Calm,-,N/A,,Clear,0,2013-03-23 14:15:00
7:35 AM,26.6,10.4,51,30.06,10.0,Calm,Calm,-,N/A,,Clear,0,2013-03-23 14:35:00
7:55 AM,28.4,10.4,47,30.08,10.0,Calm,Calm,-,N/A,,Clear,0,2013-03-23 14:55:00
8:15 AM,30.2,10.4,44,30.08,10.0,Calm,Calm,-,N/A,,Clear,0,2013-03-23 15:15:00
8:35 AM,32.0,10.4,41,30.08,10.0,Calm,Calm,-,N/A,,Clear,0,2013-03-23 15:35:00
8:55 AM,35.6,10.4,35,30.09,10.0,Calm,Calm,-,N/A,,Clear,0,2013-03-23 15:55:00
9:15 AM,41.0,5.0,23,30.09,10.0,Calm,Calm,-,N/A,,Clear,0,2013-03-23 16:15:00
9:35 AM,44.6,-4.0,13,30.10,10.0,ENE,5.8,-,N/A,,Clear,70,2013-03-23 16:35:00
9:55 AM,46.4,1.4,16,30.10,10.0,East,5.8,-,N/A,,Clear,90,2013-03-23 16:55:00
10:15 AM,50.0,5.0,16,30.10,10.0,East,6.9,-,N/A,,Clear,100,2013-03-23 17:15:00
10:35 AM,50.0,5.0,16,30.11,10.0,East,8.1,-,N/A,,Clear,80,2013-03-23 17:35:00
10:55 AM,50.0,5.0,16,30.10,10.0,ENE,9.2,-,N/A,,Clear,70,2013-03-23 17:55:00
11:15 AM,51.8,5.0,15,30.10,10.0,East,10.4,-,N/A,,Clear,80,2013-03-23 18:15:00
11:35 AM,50.0,3.2,15,30.10,10.0,ESE,6.9,-,N/A,,Clear,110,2013-03-23 18:35:00
11:55 AM,50.0,3.2,15,30.09,10.0,ENE,9.2,-,N/A,,Clear,70,2013-03-23 18:55:00
12:15 PM,51.8,3.2,14,30.09,10.0,East,9.2,-,N/A,,Clear,90,2013-03-23 19:15:00
12:35 PM,51.8,3.2,14,30.09,10.0,East,10.4,-,N/A,,Clear,100,2013-03-23 19:35:00
12:55 PM,51.8,3.2,14,30.10,10.0,East,10.4,-,N/A,,Clear,100,2013-03-23 19:55:00
1:15 PM,51.8,-0.4,12,30.10,10.0,East,9.2,-,N/A,,Clear,80,2013-03-23 20:15:00
1:35 PM,51.8,-0.4,12,30.10,10.0,ENE,10.4,-,N/A,,Clear,70,2013-03-23 20:35:00
1:55 PM,53.6,1.4,12,30.09,10.0,ENE,9.2,-,N/A,,Clear,70,2013-03-23 20:55:00
2:15 PM,55.4,3.2,12,30.09,10.0,WSW,5.8,-,N/A,,Clear,250,2013-03-23 21:15:00
2:35 PM,55.4,3.2,12,30.09,10.0,WSW,6.9,-,N/A,,Clear,250,2013-03-23 21:35:00
2:55 PM,55.4,5.0,13,30.08,10.0,West,9.2,17.3,N/A,,Clear,260,2013-03-23 21:55:00
3:15 PM,53.6,8.6,16,30.08,10.0,West,13.8,18.4,N/A,,Clear,270,2013-03-23 22:15:00
3:35 PM,55.4,6.8,14,30.08,10.0,West,11.5,18.4,N/A,,Clear,260,2013-03-23 22:35:00
3:55 PM,53.6,5.0,14,30.07,10.0,WSW,4.6,19.6,N/A,,Clear,240,2013-03-23 22:55:00
4:15 PM,53.6,12.2,19,30.07,10.0,West,11.5,18.4,N/A,,Clear,260,2013-03-23 23:15:00
4:35 PM,53.6,12.2,19,30.06,10.0,West,11.5,-,N/A,,Clear,260,2013-03-23 23:35:00
4:55 PM,53.6,14.0,21,30.07,10.0,WSW,8.1,16.1,N/A,,Clear,250,2013-03-23 23:55:00
5:15 PM,51.8,14.0,22,30.07,10.0,WSW,9.2,17.3,N/A,,Clear,240,2013-03-24 00:15:00
5:35 PM,51.8,14.0,22,30.08,10.0,WSW,9.2,16.1,N/A,,Clear,240,2013-03-24 00:35:00
5:55 PM,50.0,14.0,24,30.08,10.0,WSW,6.9,16.1,N/A,,Clear,240,2013-03-24 00:55:00
6:15 PM,50.0,14.0,24,30.08,10.0,WSW,5.8,-,N/A,,Clear,250,2013-03-24 01:15:00
6:35 PM,48.2,17.6,30,30.08,10.0,WSW,6.9,-,N/A,,Clear,250,2013-03-24 01:35:00
6:55 PM,46.4,17.6,32,30.08,10.0,West,8.1,-,N/A,,Clear,260,2013-03-24 01:55:00
7:15 PM,46.4,19.4,34,30.08,10.0,WSW,6.9,-,N/A,,Clear,240,2013-03-24 02:15:00
7:35 PM,44.6,19.4,37,30.08,10.0,WSW,8.1,-,N/A,,Clear,250,2013-03-24 02:35:00
7:55 PM,44.6,23.0,43,30.08,10.0,WSW,8.1,-,N/A,,Clear,250,2013-03-24 02:55:00
8:15 PM,42.8,24.8,49,30.09,10.0,West,10.4,-,N/A,,Clear,270,2013-03-24 03:15:00
8:35 PM,42.8,26.6,53,30.09,10.0,West,10.4,-,N/A,,Clear,270,2013-03-24 03:35:00
8:55 PM,42.8,23.0,46,30.09,10.0,West,13.8,-,N/A,,Clear,270,2013-03-24 03:55:00
9:15 PM,42.8,23.0,46,30.10,10.0,West,10.4,-,N/A,,Clear,260,2013-03-24 04:15:00
9:35 PM,42.8,21.2,42,30.11,10.0,West,10.4,-,N/A,,Clear,270,2013-03-24 04:35:00
9:55 PM,42.8,19.4,39,30.11,10.0,West,10.4,-,N/A,,Clear,260,2013-03-24 04:55:00
10:15 PM,42.8,19.4,39,30.12,10.0,WSW,6.9,-,N/A,,Clear,240,2013-03-24 05:15:00
10:35 PM,42.8,21.2,42,30.11,10.0,West,9.2,-,N/A,,Clear,260,2013-03-24 05:35:00
10:55 PM,41.0,21.2,45,30.11,10.0,West,9.2,-,N/A,,Clear,260,2013-03-24 05:55:00
11:15 PM,41.0,17.6,39,30.11,10.0,WSW,6.9,-,N/A,,Clear,250,2013-03-24 06:15:00
11:35 PM,41.0,19.4,42,30.11,10.0,West,8.1,-,N/A,,Clear,260,2013-03-24 06:35:00
11:55 PM,41.0,14.0,33,30.11,10.0,WSW,4.6,-,N/A,,Clear,240,2013-03-24 06:55:00